Погода в Сосьве

Погода в Сосьве : погода сейчас, прогноз погоды и архив. Всё, что Вы хотите узнать о погоде в Сосьве!

Хотите узнать прогноз погоды в Сосьве? Тогда Вам сюда: Погода в Сосьве

Поиск расширенной информации на нашем сайте:

Другие новости

Новости СМИ2

Главная страница сайта

Новости сайта

03.07.2017

Напоминаем, что на нашем специализированном сайте Метеоцентр.Азия вы можете получить высокодетализированные автоматические прогнозы погоды по пунктам России, СНГ и мира в авиационном формате (включающие направление и скорость ветра, видимость, явления погоды, количество и форму облачности, нижнюю и верхнюю границу облачности).


Погода в Сосьве - сегодня

Время (UTC), дата Ветер
(°,м/с) 
Видим.   Явления Облачность Т
(°С)
Тd
(°С)
f(%) Тe
(°С)
Pmin
(гПа)
dP
(гПа)
Po
(мм)
O2
(г/м3)
Тmin Tmax R s Состояние
почвы
00 14.08.18 240 (ЮЗ) 20000 м  {ливн. осадки}  ясно 
+16.8 +14.4 86 +26  997  0.2  745  280           
03 14.08.18 230 (ЮЗ) 20000 м    9/0 верхняя 
[Cs]
+17.1 +12.6 75 +23  997.8  0.8  746  280  +16.6    0.1     
06 14.08.18 220 (ЮЗ) 20000 м    6/1 1000 м верхняя 
[Cu med, cong|Cs]
+18.3 +11.4 64 +22  999  1.2  747  280  +16.4         
15 14.08.18 270 (З) 20000 м    3/3 600 м 
[Cu Sc]
+17.9 +8.9 56 +18  1003.9  1.5  751  282    +21.2       
18 14.08.18 тихо ()   20000 м    3/3 600 м 
[Sc diur, vesp]
+11.5 +9 85 +12  1005.6  1.7  752  289           
21 14.08.18 280 (З) 20000 м    3/0 средняя 
[Ac lent]
+9.9 +8.6 92 +10  1006.5  0.8  752  291           
00 15.08.18 270 (З) 20000 м    6/0 средняя 
[Ac lent]
+6.8 +6.7 99 +8  1007.8  1.3  753  295           
03 15.08.18 290 (З) 20000 м    10/4 600 м верхняя 
[Sc diur, vesp|Ci fib]
+11.9 +9.7 86 +13  1008.6  0.8  754  289  +6.6         
06 15.08.18 270 (З) 20000 м    10/1 1000 м верхняя 
[Cu med, cong|Ci fib]
+16.3 +9.8 65 +18  1008.8  0.2  754  285           
09 15.08.18 310 (СЗ) 20000 м    9/9 1000 м 
[Cu med, cong]
+18 +8.7 54 +19  1008.9  0.2  754  284           
12 15.08.18 280 (З) 20000 м    9/9 1000 м 
[Cu med, cong]
+17.5 +8.4 55 +18  1009.4  0.5  755  284           
18 15.08.18 тихо ()   20000 м    ясно 
+8.2 +7.6 96 +8  1010.8  0.6  756  294           
21 15.08.18 тихо ()   20000 м    9/9 600 м 
[Sc]
+10.4 +8.5 88 +10  1010.9  0.2  756  292           
00 16.08.18 тихо ()   20000 м    10/0 средняя 
[Ac As]
+9.8 +9.2 96 +10  1011.1  0.2  756  292           
03 16.08.18 290 (З) 20000 м    10/10 600 м кучево-дожд. 
[Cb cap]
+11.2 +9.8 91 +13  1011.5  0.4  756  291  +8.1         
06 16.08.18 290 (З) 20000 м    3/3 600 м 
[Sc diur, vesp]
+15.8 +8.9 64 +17  1011.1  -0.3  756  286           
09 16.08.18 340 (С) 20000 м    10/10 600 м кучево-дожд. 
[Cb cap]
+16.3 +9.4 64 +17  1011  0.1  756  286           
12 16.08.18 270 (З) 20000 м    6/6 600 м кучево-дожд. 
[Cb cap]
+17 +8.1 56 +18  1010.9  0.1  756  285           
18 16.08.18 тихо ()   20000 м    3/3 600 м 
[Sc]
+6.9 +6.7 99 +7  1011.8  0.8  756  296           
21 16.08.18 тихо ()   20000 м    1/1 600 м 
[Sc]
+5.3 +5.3 100 +5  1012.1  0.2  757  298           
00 17.08.18 330 (СЗ) 20000 м    1/1 600 м 
[Sc]
+6.3 +6.2 99 +7  1012.5  0.5  757  297           
03 17.08.18 тихо ()   20000 м    1/1 600 м 
[Sc]
+10.7 +8.7 87 +11  1013.3  0.9  758  292  +4.4         
06 17.08.18 030 (СВ) 20000 м    8/8 600 м 
[Sc diur, vesp]
+17 +7.5 54 +18  1013.3  758  286           
09 17.08.18 350 (С) 20000 м    10/10 600 м кучево-дожд. 
[Cb cap]
+16.5 +7.6 56 +18  1013.6  0.3  758  287           
12 17.08.18 040 (СВ) 20000 м  в посл. час ливневой дождь  9/9 600 м кучево-дожд. 
[Cb cap]
+15.3 +9.8 70 +17  1013.9  0.3  758  287           
Время (UTC), дата Ветер
(°,м/с) 
Видим.   Явления Облачность Т
(°С)
Тd
(°С)
f(%) Тe
(°С)
Pmin
(гПа)
dP
(гПа)
Po
(мм)
O2
(г/м3)
Тmin Tmax R s Состояние
почвы

Для получения пояснительной информации подведите курсор к названию столбца.

ПОГОДА в Сосьве - архив

Всё, что Вы хотите узнать о погоде в Сосьве - удобно и подробно!

Выберите нужную дату (начиная с 1 января 2015* года) и нажмите кнопку "Найти".
Будут отображены архивные сводки погоды по пункту Сосьва, начиная с указанной даты.


Отображать данные в формате CSV (для использования в таблицах Excel)


Внимание! Наш архив погоды предназначен исключительно для личного некоммерческого использования в познавательных целях. Если Вам необходимы официальные справки о состоянии погоды (для производственных, юридических, коммерческих и т.п. целей), обращайтесь в органы Росгидромета.

*Примечание: данная дата относится к архиву по метеостанциям СССР (Россия, СНГ, Балтия).
Архив по метеостанциям Зарубежной Европы и Азии (кроме Китая) хранится 10 дней, по другим регионам земного шара (Китай, Африка, Америка, Австралия, Океания) - 1 день.

Сосьва - район местоположения метеостанции


Название, широта, долгота, высота метеостанции:
Сосьва 63.6°ш. 62.1°д. 28 м над ур. моря [Российская Федерация]

Дополнительная информация

В oтличие oт бoльшинства пoгoдных сайтoв мы публикуем пoдрoбную метеoинфoрмацию в детальнoм прoфессиoнальнoм фoрмате.

Характеристики температуры и влажнoсти вoздуха измеряются на высoте 2 м в тени вдали oт зданий и деревьев.
Скoрoсть ветра измеряется на высoте 10 м (на урoвне рoста челoвека скoрoсть ветра ниже в 1.5-2 раза). Если метеoстанция нахoдится в гoрoде или в лесу, тo скoрoсть ветра занижена на 2-4 м/с пo сравнению с oткрытым местoм. Скoрoсть ветра над акватoриями крупных рек и oзёр, а также на вершинах хoлмoв на 2-5 м/с выше, чем в oбычных услoвиях.
Атмoсфернoе давление в разных тoчках местнoсти мoжет значительнo oтличаться oт давления на метеoстанции, в зависимoсти oт услoвий рельефа (при пoдъёме на 10 м давление пoнижается примернo на 1 мм рт.ст.).